EN

Hourly Weather Aahalden

Today, 12 June, Saturday

Time Temperature Precipitation Wind Pressure Humidity
00:00 +15°C° 0 mm 1 mps 713 mmHg 82%
01:00 +15°C° 0 mm 1 mps 712 mmHg 82%
02:00 +15°C° 0 mm 1 mps 712 mmHg 82%
03:00 +14°C° 0 mm 1 mps 712 mmHg 82%
04:00 +14°C° 0 mm 1 mps 712 mmHg 81%
05:00 +15°C° 0 mm 1 mps 713 mmHg 78%
06:00 +18°C° 0 mm 1 mps 713 mmHg 74%
07:00 +17°C° 0 mm 0 mps 714 mmHg 70%
08:00 +21°C° 0 mm 1 mps 714 mmHg 64%
09:00 +23°C° 0 mm 1 mps 714 mmHg 57%
10:00 +25°C° 0 mm 1 mps 714 mmHg 50%
11:00 +26°C° 0 mm 2 mps 714 mmHg 47%
12:00 +27°C° 0 mm 2 mps 714 mmHg 44%
13:00 +27°C° 0 mm 2 mps 714 mmHg 41%
14:00 +27°C° 0 mm 2 mps 714 mmHg 46%
15:00 +26°C° 0 mm 3 mps 714 mmHg 50%
16:00 +26°C° 0 mm 3 mps 714 mmHg 54%
17:00 +24°C° 0.3 mm 2 mps 714 mmHg 64%
18:00 +23°C° 0.3 mm 2 mps 714 mmHg 74%
19:00 +21°C° 0.3 mm 1 mps 714 mmHg 84%
20:00 +20°C° 0.1 mm 1 mps 715 mmHg 87%
21:00 +19°C° 0.1 mm 1 mps 715 mmHg 90%
22:00 +16°C° 0.1 mm 1 mps 715 mmHg 93%
23:00 +15°C° 0 mm 0 mps 715 mmHg 93%

Tomorrow, 13 June, Sunday

Time Temperature Precipitation Wind Pressure Humidity
00:00 +15°C° 0 mm 0 mps 715 mmHg 94%
01:00 +15°C° 0 mm 0 mps 715 mmHg 95%
02:00 +15°C° 0 mm 0 mps 715 mmHg 95%
03:00 +15°C° 0 mm 0 mps 715 mmHg 95%
04:00 +15°C° 0 mm 0 mps 715 mmHg 95%
05:00 +16°C° 0 mm 0 mps 715 mmHg 94%
06:00 +18°C° 0 mm 1 mps 715 mmHg 92%
07:00 +19°C° 0 mm 1 mps 716 mmHg 91%
08:00 +20°C° 0 mm 1 mps 716 mmHg 84%
09:00 +20°C° 0 mm 2 mps 716 mmHg 76%
10:00 +21°C° 0 mm 2 mps 716 mmHg 69%
11:00 +23°C° 0 mm 2 mps 716 mmHg 65%
12:00 +24°C° 0 mm 2 mps 716 mmHg 60%
13:00 +25°C° 0 mm 2 mps 716 mmHg 55%
14:00 +25°C° 0 mm 3 mps 716 mmHg 55%
15:00 +25°C° 0 mm 3 mps 716 mmHg 54%
16:00 +25°C° 0 mm 3 mps 715 mmHg 53%
17:00 +24°C° 0 mm 3 mps 715 mmHg 60%
18:00 +22°C° 0 mm 3 mps 715 mmHg 66%
19:00 +20°C° 0 mm 3 mps 715 mmHg 72%
20:00 +18°C° 0 mm 2 mps 715 mmHg 78%
21:00 +17°C° 0 mm 2 mps 715 mmHg 84%
22:00 +15°C° 0 mm 1 mps 715 mmHg 90%
23:00 +14°C° 0 mm 1 mps 715 mmHg 91%

Day after tomorrow, 14 June, Monday

Time Temperature Precipitation Wind Pressure Humidity
00:00 +13°C° 0 mm 1 mps 714 mmHg 92%
01:00 +13°C° 0 mm 1 mps 714 mmHg 94%
02:00 +12°C° 0 mm 1 mps 714 mmHg 93%
03:00 +12°C° 0 mm 1 mps 713 mmHg 93%
04:00 +11°C° 0 mm 1 mps 713 mmHg 92%
05:00 +13°C° 0 mm 1 mps 714 mmHg 88%
06:00 +14°C° 0 mm 1 mps 714 mmHg 84%
07:00 +14°C° 0 mm 0 mps 714 mmHg 80%
08:00 +18°C° 0 mm 1 mps 714 mmHg 73%
09:00 +21°C° 0 mm 1 mps 714 mmHg 66%
10:00 +23°C° 0 mm 2 mps 714 mmHg 59%
11:00 +24°C° 0 mm 2 mps 714 mmHg 55%
12:00 +25°C° 0 mm 2 mps 714 mmHg 52%
13:00 +27°C° 0 mm 2 mps 713 mmHg 48%
14:00 +27°C° 0 mm 2 mps 713 mmHg 48%
15:00 +27°C° 0 mm 2 mps 713 mmHg 47%
16:00 +27°C° 0 mm 2 mps 713 mmHg 47%
17:00 +26°C° 0 mm 2 mps 713 mmHg 56%
18:00 +24°C° 0 mm 2 mps 713 mmHg 65%
19:00 +23°C° 0 mm 1 mps 712 mmHg 75%
20:00 +21°C° 0 mm 1 mps 712 mmHg 81%
21:00 +19°C° 0 mm 1 mps 712 mmHg 86%
22:00 +16°C° 0 mm 1 mps 712 mmHg 92%
23:00 +16°C° 0 mm 1 mps 712 mmHg 93%

15 June, Tuesday

Time Temperature Precipitation Wind Pressure Humidity
00:00 +15°C° 0 mm 1 mps 712 mmHg 93%
01:00 +14°C° 0 mm 0 mps 712 mmHg 94%
02:00 +14°C° 0 mm 0 mps 712 mmHg 94%
03:00 +13°C° 0 mm 0 mps 712 mmHg 94%
04:00 +13°C° 0 mm 0 mps 712 mmHg 94%
05:00 +14°C° 0 mm 0 mps 712 mmHg 90%
06:00 +16°C° 0 mm 0 mps 712 mmHg 86%
07:00 +17°C° 0 mm 0 mps 712 mmHg 82%
08:00 +21°C° 0 mm 1 mps 713 mmHg 75%
09:00 +23°C° 0 mm 1 mps 713 mmHg 67%
10:00 +25°C° 0 mm 1 mps 713 mmHg 59%
11:00 +26°C° 0 mm 2 mps 713 mmHg 55%
12:00 +27°C° 0 mm 2 mps 713 mmHg 50%
13:00 +28°C° 0 mm 2 mps 712 mmHg 46%
14:00 +28°C° 0 mm 2 mps 712 mmHg 45%
15:00 +28°C° 0 mm 2 mps 712 mmHg 45%
16:00 +28°C° 0 mm 2 mps 712 mmHg 44%
17:00 +27°C° 0 mm 1 mps 712 mmHg 53%
18:00 +25°C° 0 mm 1 mps 712 mmHg 63%
19:00 +24°C° 0 mm 1 mps 712 mmHg 72%
20:00 +22°C° 0 mm 1 mps 712 mmHg 77%
21:00 +21°C° 0 mm 1 mps 712 mmHg 81%
22:00 +19°C° 0 mm 1 mps 712 mmHg 85%
23:00 +19°C° 0 mm 1 mps 711 mmHg 86%

16 June, Wednesday

Time Temperature Precipitation Wind Pressure Humidity
00:00 +18°C° 0 mm 1 mps 711 mmHg 86%
01:00 +18°C° 0 mm 1 mps 711 mmHg 86%
02:00 +18°C° 0 mm 1 mps 711 mmHg 87%
03:00 +16°C° 0 mm 1 mps 711 mmHg 88%
04:00 +16°C° 0 mm 1 mps 711 mmHg 89%
05:00 +18°C° 0 mm 1 mps 711 mmHg 85%
06:00 +18°C° 0 mm 0 mps 711 mmHg 80%
07:00 +19°C° 0 mm 0 mps 711 mmHg 76%
08:00 +21°C° 0 mm 0 mps 711 mmHg 69%
09:00 +25°C° 0 mm 1 mps 711 mmHg 62%
10:00 +27°C° 0 mm 1 mps 711 mmHg 56%
11:00 +28°C° 0 mm 1 mps 711 mmHg 51%
12:00 +29°C° 0 mm 1 mps 711 mmHg 47%
13:00 +31°C° 0 mm 1 mps 711 mmHg 42%
14:00 +31°C° 0.1 mm 1 mps 711 mmHg 42%
15:00 +31°C° 0.1 mm 1 mps 711 mmHg 42%
16:00 +31°C° 0.1 mm 1 mps 710 mmHg 41%
17:00 +29°C° 0.1 mm 1 mps 710 mmHg 50%
18:00 +28°C° 0.1 mm 1 mps 710 mmHg 59%
19:00 +26°C° 0.1 mm 1 mps 710 mmHg 68%
20:00 +24°C° 0 mm 1 mps 710 mmHg 70%
21:00 +23°C° 0 mm 2 mps 710 mmHg 73%
22:00 +20°C° 0 mm 2 mps 709 mmHg 75%
23:00 +20°C° 0 mm 2 mps 709 mmHg 76%

17 June, Thursday

Time Temperature Precipitation Wind Pressure Humidity
00:00 +19°C° 0 mm 2 mps 709 mmHg 78%
01:00 +19°C° 0 mm 2 mps 709 mmHg 80%
02:00 +18°C° 0 mm 2 mps 709 mmHg 80%
03:00 +18°C° 0 mm 2 mps 710 mmHg 81%
04:00 +18°C° 0 mm 2 mps 710 mmHg 82%
05:00 +20°C° 0 mm 1 mps 710 mmHg 79%
06:00 +21°C° 0 mm 1 mps 710 mmHg 75%
07:00 +23°C° 0 mm 1 mps 710 mmHg 72%
08:00 +24°C° 0 mm 1 mps 710 mmHg 67%
09:00 +26°C° 0 mm 1 mps 711 mmHg 62%
10:00 +27°C° 0 mm 1 mps 711 mmHg 57%
11:00 +29°C° 0.1 mm 1 mps 711 mmHg 54%
12:00 +30°C° 0.1 mm 1 mps 711 mmHg 50%
13:00 +31°C° 0.1 mm 1 mps 711 mmHg 46%
14:00 +32°C° 0 mm 1 mps 710 mmHg 45%
15:00 +32°C° 0 mm 2 mps 710 mmHg 44%
16:00 +32°C° 0 mm 2 mps 709 mmHg 43%
17:00 +30°C° 0 mm 2 mps 709 mmHg 52%
18:00 +29°C° 0 mm 2 mps 709 mmHg 61%
19:00 +27°C° 0 mm 1 mps 708 mmHg 70%
20:00 +25°C° 0 mm 2 mps 708 mmHg 74%
21:00 +24°C° 0 mm 2 mps 708 mmHg 77%
22:00 +21°C° 0 mm 2 mps 708 mmHg 80%
23:00 +20°C° 0 mm 2 mps 708 mmHg 80%
Show more